Temp
16 14 16 17 18 19 19 19 21 21 24 22 21 22 19 19 18 18 17 17 17 18 17 17 18 19 19 19 19 20 20 21 20 20 19 19 20 20 20 20 19 19 19 19
14 14 17 18 18 18 18 19 20 21 24 22 21 22 20 19 19 19 18 18 18 18 18 18 18 19 19 19 19 20 20 21 21 20 20 20 20 19 19 20 20 19 19 19
15 16 18 18 17 17 17 18 19 21 23 23 21 20 19 19 19 19 19 18 18 18 18 18 18 18 19 19 20 20 20 21 21 20 20 19 19 19 19 19 19 20 19 19
16 18 18 18 18 18 14 19 20 20 21 22 22 19 18 19 19 19 19 19 18 18 18 18 18 19 19 20 20 20 20 20 20 20 20 20 20 19 19 19 19 20 20 19
17 17 18 18 19 19 19 20 19 20 19 21 22 20 20 19 18 19 20 19 19 19 19 19 19 19 19 20 20 20 20 20 20 20 20 20 20 20 20 19 19 19 20 20
16 19 19 20 20 20 21 21 19 18 17 17 21 22 19 18 20 20 20 20 20 19 19 20 20 19 19 19 19 20 20 20 20 20 20 20 20 20 20 19 20 19 20 20
12 16 19 20 19 20 19 18 15 15 15 19 20 21 22 21 21 22 22 21 21 20 20 20 20 20 19 20 19 20 20 21 20 21 21 20 20 20 20 20 21 21 20 20
8 15 15 13 18 18 19 17 14 14 15 19 17 18 20 24 23 24 23 23 22 21 21 20 21 21 21 21 21 20 21 21 21 21 21 21 21 21 21 20 21 21 21 21
7 9 12 14 14 16 18 18 18 16 16 16 21 19 22 22 24 25 23 23 23 22 21 21 21 21 21 22 22 21 21 21 23 22 22 22 21 21 21 21 21 21 21 21
7 7 10 12 14 16 15 19 19 15 16 16 18 18 23 21 22 22 21 22 23 23 22 21 21 21 22 22 22 22 22 23 23 23 22 22 22 22 21 21 21 21 21 21
6 7 9 11 13 16 17 18 17 19 17 18 16 19 19 21 24 25 21 23 23 24 22 23 22 22 22 21 22 22 22 22 22 23 23 22 23 22 22 21 21 21 21 21
6 7 7 8 12 13 11 12 17 19 17 17 16 20 23 21 22 25 26 25 26 25 24 24 23 22 22 22 21 22 23 23 23 23 23 23 23 23 22 22 22 21 21 21
6 6 7 9 12 11 10 12 13 15 16 18 20 19 22 22 22 23 23 25 25 26 24 24 23 22 22 23 22 22 22 23 24 24 23 23 23 23 23 23 22 22 21 21
7 5 6 7 9 8 8 10 10 11 14 19 20 21 22 24 22 22 24 25 26 25 24 24 23 23 23 23 23 23 22 23 24 24 23 23 23 23 23 23 23 22 22 21
4 5 4 5 6 8 8 8 9 10 12 13 20 19 20 21 23 23 24 25 25 27 25 24 24 24 23 23 23 23 23 23 24 23 23 24 24 24 24 23 23 23 22 22
4 3 6 6 7 8 9 10 10 12 13 13 15 19 17 20 22 19 16 18 20 22 25 28 29 25 24 24 24 25 24 24 23 23 24 24 24 24 24 24 23 23 23 22
4 4 5 5 8 8 9 11 14 14 13 14 17 18 14 17 15 14 14 15 17 21 24 26 27 26 25 25 25 26 25 25 24 25 25 25 24 25 24 24 24 24 23 23
3 3 5 4 8 10 12 13 15 13 12 10 12 14 16 16 15 14 13 13 15 19 24 25 24 26 26 27 26 24 25 26 26 27 26 25 25 25 25 24 24 24 23 23
4 4 5 5 8 12 14 11 11 9 12 10 9 10 14 16 17 16 14 14 14 16 22 25 25 24 24 25 25 25 26 26 26 26 26 26 26 25 25 25 25 24 24 24
4 4 4 6 7 12 9 10 11 11 11 10 9 9 10 16 14 13 13 13 15 16 21 25 25 25 24 24 25 25 27 26 28 28 28 27 26 26 26 26 26 25 25 24
4 4 4 5 8 10 8 9 12 13 10 9 8 8 8 12 12 13 14 15 14 15 19 23 25 25 25 25 25 25 26 27 27 26 26 26 26 26 26 26 25 25 25 24
5 5 7 6 8 10 6 10 10 9 9 7 7 8 8 11 13 15 16 16 16 16 18 19 23 24 25 25 25 25 26 25 26 26 26 26 26 26 26 26 26 25 25 25
6 4 5 5 6 5 5 7 7 7 7 7 7 9 10 11 12 13 15 16 16 16 16 17 18 19 22 22 22 23 23 24 24 25 25 25 25 25 25 25 25 24 24 24
4 4 4 4 6 6 6 7 7 6 6 8 8 9 11 12 13 13 14 15 16 16 16 16 17 17 17 18 20 20 21 22 23 23 23 23 24 23 23 23 23 23 24 24
4 4 3 5 6 6 6 6 6 6 6 8 10 10 11 12 13 13 13 14 15 16 16 17 16 16 16 17 18 19 20 20 21 22 22 22 22 23 23 23 23 23 23 24
5 5 5 6 5 5 5 6 5 5 6 7 9 10 10 11 12 12 13 14 15 15 16 17 17 17 17 17 18 18 19 20 21 21 22 22 22 22 23 24 24 25 24 24
Height
1471 1480 1475 1468 1474 1478 1480 1483 1482 1475 1469 1474 1478 1476 1482 1484 1490 1493 1495 1499 1502 1505 1512 1519 1523 1528 1533 1537 1542 1546 1550 1554 1559 1564 1568 1571 1574 1578 1581 1584 1587 1589 1591 1592
1473 1471 1465 1473 1476 1480 1483 1484 1483 1474 1467 1472 1474 1474 1477 1479 1478 1481 1488 1491 1496 1505 1510 1515 1519 1523 1527 1532 1537 1542 1546 1551 1556 1561 1565 1569 1573 1576 1581 1583 1586 1588 1590 1592
1467 1463 1464 1469 1474 1481 1483 1484 1484 1478 1469 1468 1473 1481 1479 1477 1480 1485 1487 1488 1494 1498 1501 1508 1514 1517 1523 1527 1531 1537 1542 1547 1552 1558 1563 1567 1571 1574 1578 1581 1584 1586 1588 1591
1461 1455 1461 1464 1468 1473 1492 1470 1477 1481 1483 1487 1469 1502 1478 1471 1475 1477 1480 1483 1487 1491 1497 1502 1508 1511 1515 1520 1528 1533 1539 1544 1549 1554 1559 1563 1566 1570 1574 1579 1582 1585 1587 1589
1454 1452 1457 1464 1459 1465 1467 1467 1475 1479 1485 1481 1474 1487 1471 1466 1473 1469 1470 1473 1479 1484 1488 1493 1498 1503 1510 1517 1523 1529 1535 1540 1545 1550 1554 1559 1563 1568 1572 1576 1580 1582 1585 1587
1452 1447 1450 1450 1454 1458 1459 1466 1473 1480 1490 1499 1475 1476 1473 1467 1457 1456 1461 1465 1470 1476 1480 1485 1492 1500 1505 1512 1517 1523 1528 1534 1540 1544 1550 1554 1559 1563 1568 1572 1576 1579 1582 1585
1461 1448 1445 1447 1453 1451 1459 1472 1501 1506 1503 1481 1468 1473 1458 1443 1439 1441 1446 1452 1459 1466 1473 1478 1485 1491 1497 1503 1509 1516 1522 1527 1533 1539 1544 1549 1554 1559 1564 1568 1571 1575 1577 1580
1487 1461 1450 1451 1448 1454 1455 1464 1486 1502 1497 1475 1470 1469 1448 1431 1433 1434 1437 1443 1454 1461 1465 1469 1474 1481 1489 1495 1502 1507 1513 1520 1526 1532 1538 1544 1549 1554 1559 1563 1567 1570 1573 1576
1489 1476 1457 1454 1454 1454 1450 1454 1449 1470 1472 1479 1452 1451 1434 1428 1427 1428 1430 1440 1444 1448 1453 1454 1464 1472 1479 1486 1493 1499 1506 1513 1519 1526 1532 1538 1543 1548 1553 1558 1562 1566 1570 1573
1487 1489 1463 1455 1449 1441 1447 1439 1457 1467 1477 1482 1459 1453 1435 1432 1429 1424 1427 1430 1433 1437 1442 1451 1455 1459 1467 1475 1485 1492 1499 1505 1512 1520 1525 1531 1537 1542 1547 1552 1557 1561 1566 1570
1485 1486 1471 1463 1453 1443 1442 1442 1442 1440 1454 1459 1473 1450 1422 1421 1417 1418 1418 1419 1422 1427 1431 1437 1442 1448 1456 1468 1476 1483 1490 1498 1505 1512 1518 1524 1530 1536 1541 1546 1551 1556 1561 1566
1483 1483 1481 1468 1446 1446 1453 1448 1436 1439 1451 1447 1456 1440 1408 1407 1408 1408 1406 1410 1413 1417 1422 1427 1433 1442 1449 1456 1464 1472 1481 1488 1496 1504 1511 1517 1524 1529 1534 1539 1545 1550 1555 1561
1481 1483 1483 1460 1444 1446 1451 1445 1443 1438 1434 1435 1439 1437 1404 1405 1405 1404 1405 1408 1407 1410 1417 1423 1434 1437 1442 1447 1454 1462 1471 1479 1488 1496 1503 1510 1516 1521 1527 1533 1538 1544 1550 1554
1475 1485 1487 1477 1458 1465 1461 1452 1452 1455 1445 1428 1419 1420 1409 1402 1405 1400 1400 1401 1406 1407 1411 1416 1424 1428 1433 1439 1446 1453 1463 1472 1480 1488 1495 1501 1508 1514 1520 1526 1532 1537 1543 1548
1477 1485 1487 1473 1465 1464 1460 1454 1450 1454 1446 1445 1414 1416 1408 1398 1395 1395 1398 1400 1402 1404 1407 1410 1412 1418 1425 1434 1440 1447 1456 1464 1472 1480 1486 1493 1500 1507 1513 1519 1525 1530 1535 1541
1482 1486 1475 1464 1458 1454 1446 1441 1441 1438 1433 1432 1423 1413 1402 1395 1392 1393 1396 1394 1393 1393 1397 1399 1402 1406 1416 1424 1427 1436 1446 1456 1465 1471 1478 1486 1493 1500 1505 1512 1517 1523 1527 1532
1479 1481 1475 1464 1450 1445 1441 1422 1421 1421 1423 1419 1415 1405 1405 1401 1398 1398 1395 1391 1385 1380 1382 1385 1388 1395 1404 1413 1420 1428 1437 1450 1458 1465 1472 1479 1486 1492 1498 1504 1509 1514 1518 1523
1473 1477 1473 1468 1443 1436 1415 1408 1408 1418 1425 1423 1418 1407 1400 1400 1402 1400 1396 1389 1380 1376 1374 1375 1381 1387 1395 1404 1415 1425 1435 1444 1452 1459 1465 1472 1478 1484 1491 1496 1501 1506 1511 1514
1461 1469 1466 1461 1442 1420 1410 1417 1416 1422 1423 1425 1422 1413 1405 1400 1400 1400 1394 1383 1381 1376 1371 1373 1379 1389 1397 1403 1413 1421 1430 1439 1446 1452 1459 1465 1472 1478 1484 1489 1494 1500 1504 1508
1458 1463 1468 1450 1438 1408 1422 1417 1415 1415 1429 1426 1422 1417 1408 1395 1409 1407 1396 1391 1384 1378 1371 1374 1380 1389 1397 1403 1410 1418 1425 1432 1439 1446 1452 1460 1467 1472 1477 1483 1488 1493 1497 1500
1456 1459 1457 1452 1436 1416 1424 1413 1406 1417 1443 1431 1426 1421 1412 1406 1411 1409 1402 1395 1389 1379 1373 1375 1383 1389 1396 1403 1409 1417 1423 1427 1435 1442 1449 1455 1461 1466 1472 1477 1482 1486 1490 1493
1444 1444 1439 1441 1431 1410 1423 1409 1416 1433 1434 1432 1428 1422 1414 1412 1409 1406 1401 1395 1388 1383 1380 1382 1386 1391 1398 1403 1409 1415 1421 1427 1434 1439 1445 1451 1455 1460 1465 1470 1474 1478 1482 1485
1441 1448 1443 1447 1441 1439 1433 1432 1431 1433 1435 1432 1428 1423 1416 1413 1409 1408 1405 1402 1400 1396 1393 1392 1393 1395 1398 1404 1410 1415 1419 1424 1430 1435 1440 1446 1450 1455 1459 1463 1467 1470 1474 1476
1447 1448 1447 1446 1443 1436 1433 1434 1435 1435 1434 1430 1429 1425 1419 1417 1415 1413 1410 1408 1406 1405 1404 1403 1399 1399 1405 1409 1412 1415 1418 1423 1428 1432 1436 1442 1447 1451 1454 1457 1461 1463 1466 1469
1453 1450 1449 1446 1441 1437 1433 1431 1436 1434 1431 1428 1429 1425 1421 1419 1419 1418 1417 1415 1415 1414 1414 1413 1411 1411 1414 1417 1418 1420 1423 1427 1429 1433 1436 1439 1442 1446 1449 1451 1454 1456 1460 1462
1452 1449 1444 1444 1442 1440 1437 1428 1431 1431 1429 1428 1424 1423 1422 1421 1421 1422 1422 1422 1422 1422 1422 1422 1422 1421 1423 1425 1425 1426 1427 1430 1432 1434 1434 1436 1439 1442 1445 1446 1448 1451 1453 1456
Wind_Speed
10 5 19 22 13 2 5 5 6 4 5 6 11 10 15 22 21 23 28 31 35 36 37 37 41 39 38 37 37 35 32 32 31 31 29 26 22 18 17 17 13 11 8 5
4 14 14 8 5 5 7 3 4 4 3 6 6 14 10 18 26 31 30 32 34 31 34 37 39 40 41 39 39 37 35 35 34 33 31 29 24 19 17 17 15 13 10 8
7 6 12 13 7 11 8 16 6 3 2 7 4 5 6 13 13 21 25 32 31 36 38 38 43 44 42 43 42 40 37 37 36 33 31 29 26 24 22 20 17 14 12 11
8 9 10 13 15 11 9 15 12 7 2 4 8 5 5 8 17 18 27 32 31 36 37 38 41 46 48 46 43 41 39 39 37 35 33 31 29 28 27 24 21 18 14 12
6 7 10 13 15 14 11 9 14 12 6 4 4 3 6 11 12 19 25 34 35 37 40 43 47 48 49 46 45 44 43 42 40 38 37 34 33 30 29 28 26 24 21 17
6 4 3 15 13 16 6 1 4 3 4 9 12 7 5 7 16 18 24 32 35 38 42 45 46 44 46 47 46 46 45 45 42 41 39 39 38 34 31 29 31 30 26 23
7 4 2 6 2 14 13 10 2 3 5 13 11 12 13 5 12 18 21 35 38 39 38 44 45 47 48 49 50 50 50 47 46 42 39 39 41 36 31 28 25 30 32 29
5 2 3 4 7 8 14 10 6 8 4 12 6 8 7 20 16 22 30 33 31 34 39 40 47 50 51 51 51 52 52 50 48 45 41 38 39 39 35 30 26 25 28 27
3 6 7 5 4 2 7 17 11 4 1 1 9 5 7 6 19 20 20 22 31 40 44 48 44 49 51 52 54 54 53 53 46 47 43 40 38 41 39 33 29 26 25 25
3 5 3 8 7 10 8 3 8 3 7 5 3 7 10 11 10 13 7 20 31 39 47 38 42 48 51 50 53 55 55 53 48 46 46 42 39 38 40 36 32 29 27 26
4 3 6 6 5 4 4 9 5 7 8 8 2 6 6 12 15 15 13 28 31 37 43 47 49 50 49 48 50 54 56 56 54 48 47 44 40 38 41 39 34 31 28 26
2 1 5 9 13 8 5 5 7 8 12 6 4 7 4 10 9 13 21 33 35 38 45 47 47 47 46 49 50 54 55 55 52 49 48 48 44 40 40 41 35 31 31 29
5 2 4 8 2 2 0 4 4 5 3 15 13 7 6 6 7 15 20 24 32 37 38 42 34 41 48 51 52 53 55 54 49 49 50 49 49 45 41 39 36 33 32 31
5 1 6 7 1 5 7 14 10 2 5 6 14 8 8 11 8 7 13 17 20 26 35 39 39 45 49 50 53 52 51 50 48 47 49 49 48 45 41 39 37 36 34 32
4 4 7 18 21 14 14 18 17 6 8 4 6 10 9 11 11 10 9 12 14 20 27 34 43 45 47 45 48 48 48 47 46 45 46 46 46 45 42 40 38 37 36 33
6 4 8 17 14 16 16 17 16 17 19 12 15 12 4 5 7 11 12 12 18 24 30 39 39 46 47 49 51 50 48 48 46 43 41 39 41 43 41 38 39 38 38 35
9 4 3 6 3 7 6 18 12 5 9 4 6 1 6 2 6 10 15 17 19 23 23 30 42 48 49 51 52 50 49 45 42 39 37 38 39 38 39 38 37 38 38 36
8 5 3 4 3 4 4 6 14 17 13 14 11 13 4 9 10 17 22 19 16 17 20 31 42 48 50 50 50 45 44 41 39 37 37 38 39 39 38 38 39 39 38 37
7 4 4 3 2 4 6 6 5 6 7 15 13 15 12 8 7 12 29 22 15 12 13 31 36 37 39 45 46 43 41 41 39 39 38 37 35 35 36 38 37 35 35 35
9 5 6 2 3 7 5 13 6 5 6 15 16 14 13 6 6 6 27 22 15 10 8 23 28 31 35 38 42 42 41 41 40 38 37 36 34 34 35 33 34 33 34 33
5 4 12 7 4 1 14 17 3 5 1 16 19 17 17 8 4 12 26 31 23 22 19 21 27 30 30 32 33 34 37 38 36 34 32 32 32 31 30 30 30 30 30 29
4 4 3 2 6 2 24 6 6 3 3 12 18 20 20 20 22 27 32 36 38 34 30 25 24 27 30 29 27 26 27 26 26 26 26 24 24 25 26 26 26 26 26 26
3 3 1 1 3 10 15 5 10 11 6 12 18 18 20 25 25 26 30 34 35 36 37 38 35 25 23 24 22 23 23 23 24 24 24 24 24 24 24 24 25 26 27 27
6 7 1 4 4 10 2 12 11 13 8 12 15 17 18 21 22 23 26 29 30 32 33 33 37 39 35 29 24 21 15 13 16 18 21 21 24 24 24 25 24 25 27 28
2 6 4 4 7 7 9 19 13 16 15 10 14 16 19 17 19 19 20 23 25 26 26 26 29 30 28 24 22 20 20 18 18 16 15 14 15 16 19 21 22 24 25 26
14 6 5 3 13 8 13 25 24 19 16 11 14 17 16 14 12 16 15 16 18 21 22 21 21 22 22 19 16 14 13 12 12 11 10 11 11 12 14 14 16 19 21 23
Wind_Direction
176 160 207 207 208 117 167 196 216 212 204 142 201 222 178 178 182 185 186 190 196 199 198 202 209 209 208 207 204 203 201 197 196 196 197 201 206 204 204 208 210 197 193 192
126 221 221 189 192 186 232 241 252 289 226 176 214 233 178 179 197 194 187 192 200 196 199 203 206 211 212 208 208 206 207 202 200 202 204 211 213 209 213 217 215 210 209 211
176 235 170 185 184 196 219 229 227 209 351 211 136 292 179 199 194 200 205 208 200 198 196 201 205 213 216 215 212 209 208 204 203 204 206 212 215 218 220 219 222 222 222 224
233 234 197 197 204 174 213 216 239 254 320 218 166 259 234 184 197 202 205 208 203 202 202 204 205 213 216 217 216 212 208 207 207 209 213 216 219 221 225 231 235 237 236 233
222 197 201 207 211 182 236 162 206 230 212 299 226 197 257 186 202 209 208 210 209 206 204 204 210 213 219 222 221 218 216 215 215 216 220 223 224 227 231 234 237 240 242 240
241 251 198 221 212 201 175 331 136 117 138 236 226 213 255 191 210 214 213 213 209 207 209 211 214 211 217 221 225 222 220 220 219 221 225 229 230 231 234 239 239 239 242 243
335 245 179 249 223 199 180 157 267 228 201 234 207 223 233 197 220 210 204 211 210 208 208 210 211 211 214 219 223 226 223 222 223 224 225 231 231 233 236 240 246 239 241 243
359 275 21 13 196 200 202 180 170 196 193 228 182 225 238 225 239 222 218 213 206 206 212 208 214 216 218 220 221 224 225 221 224 226 227 230 234 234 236 239 244 245 241 240
27 274 328 287 331 1 211 210 194 99 240 178 202 243 294 243 220 229 225 199 202 205 210 215 208 215 217 221 223 224 224 222 223 224 226 229 234 236 236 239 241 244 244 236
161 291 284 310 312 222 196 259 197 198 196 241 263 193 228 198 224 234 207 195 209 208 215 212 207 214 219 223 224 226 227 224 222 224 225 228 232 237 239 240 241 243 241 235
157 164 294 353 230 235 189 226 267 179 200 213 173 245 217 192 200 222 209 216 212 208 208 212 213 216 219 217 221 225 227 226 225 226 226 228 231 235 239 241 241 242 241 237
165 196 265 242 265 289 318 278 236 224 221 234 146 247 207 210 213 223 216 218 226 221 214 214 215 208 208 216 214 221 226 226 226 228 230 231 231 234 237 239 240 241 240 237
173 96 312 300 299 72 131 323 319 288 312 214 222 238 267 237 250 244 238 229 224 224 214 214 209 207 210 215 214 217 222 225 227 228 229 231 233 234 235 238 240 241 240 237
113 152 210 250 29 21 302 301 322 15 271 253 232 229 198 262 247 255 252 243 231 227 218 215 210 211 214 214 215 218 221 224 226 227 230 231 233 235 237 239 241 243 242 239
108 244 247 261 270 275 268 275 287 268 246 232 251 219 233 220 231 249 235 261 264 243 225 218 214 215 210 206 211 217 222 222 224 225 228 231 235 236 237 240 242 244 244 241
179 243 276 276 255 249 262 262 262 258 252 246 260 265 327 314 274 336 350 317 286 267 243 231 237 218 208 206 215 217 219 220 222 222 226 230 233 236 237 239 242 242 243 241
175 209 253 258 293 315 274 237 228 93 32 305 237 269 310 349 41 17 358 346 310 295 268 237 225 214 209 210 215 216 217 218 220 223 227 230 231 232 234 236 239 239 240 240
182 195 249 274 293 178 167 132 89 99 51 21 1 351 317 134 111 36 19 1 339 307 256 222 205 206 210 210 212 211 215 218 219 222 223 225 228 230 232 234 237 239 240 240
162 136 268 253 230 283 170 27 39 56 44 16 355 352 340 274 271 17 13 21 2 321 235 206 201 199 192 198 204 207 211 215 218 221 224 225 225 232 236 237 238 240 241 243
134 155 246 267 248 201 54 344 334 120 39 357 356 355 348 75 64 333 1 24 38 54 144 187 192 193 194 195 201 205 210 214 219 221 223 230 236 236 238 239 240 242 244 247
157 186 223 232 259 260 344 319 216 77 14 333 341 349 354 59 87 15 33 48 60 68 98 138 169 180 190 194 202 206 214 222 225 227 234 237 239 239 240 242 243 243 245 247
162 195 164 199 221 223 350 339 70 81 356 330 342 3 15 37 49 45 45 44 51 66 87 105 144 165 175 185 198 206 217 226 232 236 239 239 239 238 236 237 240 242 244 246
71 27 11 257 334 322 321 357 59 13 308 351 351 15 33 36 35 41 44 45 47 54 66 82 95 115 145 165 184 191 202 214 220 226 230 231 237 240 240 238 240 242 244 245
3 27 6 327 348 350 34 90 359 345 324 356 3 15 30 34 37 38 43 46 47 48 52 64 78 82 88 106 126 127 141 191 212 222 227 220 227 235 236 239 239 240 243 247
336 304 315 245 2 17 214 335 343 331 318 338 357 16 25 35 42 38 38 42 44 45 45 51 58 66 69 81 95 105 115 128 140 151 160 173 194 214 222 229 235 239 243 244
353 359 6 342 330 298 283 328 328 315 315 319 333 344 4 20 29 41 34 29 25 28 31 38 43 48 48 53 67 87 103 124 135 141 156 172 189 203 212 217 223 230 237 244